Flag for Italy Weather past 2 weeks in Naples, Italy

Now
77 °F

Passing clouds.


Feels Like: 78 °F
Forecast: 63 / 78 °F
Wind: 12 mph from East

Location: Naples / Capodichino

Current Time: Sep 23, 2014 at 2:25:09 PM

Latest Report: Sep 23, 2014 at 1:50 PM


Visibility: N/A

Pressure: 29.92 "Hg

Humidity: 28%

Dew point: 41 °F

Location of NaplesLocation

Historic Weather in Naples — Graph

°F

Naples temperature yesterday

Maximum temperature yesterday: 82 °F (at 1:20 PM)
Minimum temperature yesterday: 73 °F (at 5:20 AM)
Average temperature yesterday: 77 °F

Past Weeks' High & Low Weather Summary

 TemperatureHumidityPressure
High90 °F (Sep 20, 3:20 PM)94% (Sep 10, 4:50 AM)30.12 "Hg (Sep 10, 4:50 AM)
Low63 °F (Sep 14, 3:50 AM)25% (Sep 23, 11:50 AM)29.80 "Hg (Sep 11, 3:20 PM)
Average75 °F71%29.96 "Hg
* Reported Sep 8 1:20 PM — Sep 23 1:20 PM, Naples, Weather by CustomWeather, © 2014

Note: Actual official high and low records may vary slightly from our data, if they occured in-between our weather recording intervals... More about our weather records

Advertising

Naples weather history for previous 24 hours

 ConditionsComfort  
Time TempWeatherWind HumidityBarometerVisibility
1:20 PM
Sep 23
77 °FSunny.14 mph26%29.95 "Hg10 mi
12:50 PM77 °FSunny.12 mph26%29.92 "Hg10 mi
12:20 PM75 °FSunny.16 mph25%29.92 "Hg10 mi
11:50 AM75 °FSunny.15 mph25%29.92 "Hg10 mi
11:20 AM75 °FPassing clouds.15 mph27%29.92 "HgN/A
10:50 AM73 °FPassing clouds.14 mph31%29.92 "HgN/A
10:20 AM73 °FPassing clouds.12 mph38%29.92 "HgN/A
9:50 AM72 °FPassing clouds.14 mph44%29.92 "HgN/A
9:20 AM72 °FPassing clouds.13 mph47%29.92 "HgN/A
8:50 AM72 °FPassing clouds.14 mph53%29.89 "HgN/A
8:20 AM70 °FPassing clouds.13 mph64%29.89 "HgN/A
7:50 AM70 °FPassing clouds.7 mph64%29.86 "HgN/A
7:20 AM70 °FPassing clouds.6 mph83%29.83 "HgN/A
6:50 AM70 °FPassing clouds.2 mph83%29.83 "HgN/A
6:20 AM72 °FClear.1 mph78%29.80 "Hg10 mi
5:50 AM73 °FClear.2 mph78%29.80 "Hg10 mi
4:20 AM75 °FPassing clouds.3 mph74%29.80 "HgN/A
3:50 AM75 °FPassing clouds.5 mph74%29.80 "HgN/A
3:20 AM75 °FPassing clouds.3 mph74%29.80 "HgN/A
2:50 AM73 °FPassing clouds.5 mph78%29.80 "HgN/A
2:20 AM75 °FPassing clouds.3 mph69%29.80 "HgN/A
1:50 AM75 °FPassing clouds.7 mph69%29.83 "HgN/A
1:20 AM75 °FPassing clouds.5 mph65%29.80 "HgN/A
12:50 AM75 °FPassing clouds.5 mph65%29.80 "HgN/A
12:20 AM75 °FPassing clouds.5 mph69%29.80 "HgN/A
11:50 PM
Sep 22
75 °FPassing clouds.3 mph65%29.83 "HgN/A
11:20 PM73 °FPassing clouds.3 mph69%29.83 "HgN/A
10:50 PM75 °FPassing clouds.5 mph65%29.83 "HgN/A
10:20 PM75 °FPassing clouds.5 mph61%29.83 "HgN/A
9:50 PM75 °FPassing clouds.5 mph61%29.83 "HgN/A
9:20 PM73 °FPassing clouds.6 mph65%29.83 "HgN/A
8:50 PM73 °FPassing clouds.5 mph69%29.83 "HgN/A
8:20 PM75 °FLight rain. Passing clouds.6 mph69%29.83 "HgN/A
7:50 PM75 °FPartly sunny.6 mph74%29.83 "HgN/A
7:20 PM75 °FPartly sunny.7 mph78%29.80 "HgN/A
6:50 PM77 °FPartly sunny.9 mph69%29.83 "HgN/A
6:20 PM77 °FLight rain. Scattered clouds.10 mph69%29.83 "HgN/A
5:50 PM79 °FScattered clouds.7 mph65%29.83 "HgN/A
5:20 PM79 °FScattered clouds.6 mph65%29.83 "HgN/A
4:50 PM79 °FScattered clouds.10 mph61%29.86 "HgN/A
4:20 PM79 °FScattered clouds.6 mph70%29.83 "HgN/A
3:50 PM81 °FScattered clouds.10 mph62%29.86 "HgN/A
3:20 PM79 °FScattered clouds.9 mph70%29.86 "HgN/A
2:50 PM81 °FScattered clouds.12 mph70%29.86 "HgN/A
2:20 PM81 °FScattered clouds.12 mph66%29.86 "HgN/A
Weather by CustomWeather, © 2014

See weather overviewHow to use our weather pages